Regional Weather Roundup
Issued by NWS Green Bay, WI

Home | Current Version | Previous Version | Graphics & Text | Print | Product List | Glossary Off
Versions: 1 2 3 4 5 6 7 8 9 10 11 12 13 14 15 16 17 18 19 20 21 22 23 24 25 26 27 28 29 30 31 32 33 34 35 36 37 38 39 40 41 42 43 44 45 46 47 48 49 50

000
ASUS43 KGRB 291300
RWRGRB

NORTH-CENTRAL AND NORTHEAST WISCONSIN REGIONAL WEATHER ROUNDUP
NATIONAL WEATHER SERVICE GREEN BAY WI
800 AM CDT WED JUL 29 2015

WIZ005-009-010>012-018-019-291400-
NORTH CENTRAL WISCONSIN

CITY           SKY/WX    TMP DP  RH WIND       PRES   REMARKS
IRONWOOD       SUNNY     66  52  59 SW20G30   29.75S
MANITOWISH WTR NOT AVBL
ARBOR VITAE    NOT AVBL
EAGLE RIVER    NOT AVBL
LAND O LAKES   NOT AVBL
RHINELANDER    SUNNY     69  52  54 W15G23    29.89F
PHILLIPS       SUNNY     67  53  60 SW17G23   29.86S
ANTIGO         NOT AVBL
TOMAHAWK       NOT AVBL
MERRILL        NOT AVBL
$$

WIZ013-073-291400-
NORTHEAST WISCONSIN

CITY           SKY/WX    TMP DP  RH WIND       PRES   REMARKS
IRON MOUNTAIN  MOSUNNY   72  53  51 W10G21    29.84S
MARINETTE      PTSUNNY   73  55  53 W8        29.86R
$$

WIZ017-030-035>037-045-291400-
CENTRAL WISCONSIN

CITY           SKY/WX    TMP DP  RH WIND       PRES   REMARKS
MEDFORD        NOT AVBL
WAUSAU         PTSUNNY   69  56  62 SW8       29.91S
MOSINEE        SUNNY     66  59  77 SW14      29.95S
MARSHFIELD     PTSUNNY   67  56  67 SW9       29.94F
WISC RAPIDS    PTSUNNY   70  55  59 W8        29.96F
STEVENS POINT  NOT AVBL
WAUPACA        NOT AVBL
SHAWANO        NOT AVBL
CLINTONVILLE   CLOUDY    72  55  56 W10       29.91S
$$

WIZ038-039-048-051-291400-
FOX VALLEY

CITY           SKY/WX    TMP DP  RH WIND       PRES   REMARKS
NWS GREEN BAY  CLOUDY    74  60  61 W12       29.91R
APPLETON       PTSUNNY   73  55  53 W10       29.94R
OSHKOSH        CLOUDY    75  62  64 W8G18     29.93S
FOND DU LAC    CLOUDY    75  64  68 W13       29.93F
$$

WIZ022-050-052-291400-
EAST CENTRAL WISCONSIN

CITY           SKY/WX    TMP DP  RH WIND       PRES   REMARKS
STURGEON BAY   CLOUDY    75  57  53 W12G17    29.91R
MANITOWOC      NOT AVBL
SHEBOYGAN      CLOUDY    77  64  64 W8        29.92R
$$

LMZ563-521-522-541>543-291400-
LAKESHORE

STATION/POSITION TIME  TEMP    WIND        PRES    VSBY  WAVE
                       AIR SEA DIR/SP/G                  HT/PER
                 (UTC) (F)     (DEG/KT/KT) (MB)    (MI)  (FT/S)
SHEBOYGAN LKSHOR 1200   76     260/  7/ 10 1012.5R
KEWAUNEE LKSHORE 1200   76     270/  7/  9 1011.2R
ALGOMA MARINA    1212          320/  6/  9   N/A
TWO RIVERS CG    1209   76                 1012.4   3 1/2  1
NORTHPORT PIER   1200   76     270/  4/ 14 1010.5R
N MID LAKE BUOY  1150   72 69  210/ 14/ 17 1009.5S         2/ 4
S GREEN BAY BUOY 1200   76 74  260/ 12/ 14 1012.9R
SISTER BAY LKSHO 1214   76     280/ 16/ 17   N/A
STURGEON BAY CG  1209   74     280/  6     1012.4   3 1/2  2
CHAMBERS ISLAND  1200   75     220/  5/ 10 1010.5R
MENOMINEE LKSHOR 1200   76     260/  9/ 15 1011.7R
$$


USA.gov is the U.S. government's official web portal to all federal, state and local government web resources and services.